Weather in Kropyvnytskyi

Ukraine / Kirovohrad Region     48°30′37″N   32°15′58″E
temp.,
°C
wind,
m/s
gust,
m/s
humid.,
%
clouds,
%
prec.,
mm/h
press.,
hPa
HPBL,
m
11 april, sun
sun1100:00+6e22490 0.0 102710
03:00+5n22470 0.0 102710
06:00+4nne22510 0.0 102816
09:00+9ne35440 0.0 1029388
12:00+12ne55360 0.0 10281543
15:00+14ne56351 0.0 10261615
18:00+13nne5640100 0.0 10261243
21:00+9n4753100 0.0 1026120
12 april, mon
mon1200:00+8nne4858100 0.0 1026136
03:00+6nne476499 0.0 1025119
06:00+6n4106781 0.0 1024207
09:00+9nne5863100 0.0 1023457
12:00+11ne4567100 0.2 1022566
15:00+14nne4461100 0.2 1021917
18:00+13n4670100 0.0 1020437
21:00+11nnw4987100 0.6 1020285
13 april, tue
tue1300:00+11n3689100 0.2 1018175
03:00+11w1192100 0.2 101824
06:00+10s3496100 0.1 1018131
09:00+9sse5894100 0.6 1019347
12:00+10sse4781100 0.4 1020472
15:00+14sse6665100 0.4 10191024
18:00+12sse4672100 0.0 1018683
21:00+11se3781100 0.1 1019252
14 april, wed
wed1400:00+10sse2585100 0.0 1018159
03:00+9s2486100 0.0 1018134
06:00+8s2486100 0.0 1017173
09:00+10sse3475100 0.0 1017515
12:00+13s456255 0.0 10161112
15:00+14s455584 0.5 10151410
18:00+13ssw455417 0.3 10151337
21:00+10ssw1169100 0.3 101510
15 april, thu
thu1500:00+10ene227090 0.0 101552
03:00+9ese2379100 0.0 101478
06:00+8ese368796 0.0 1014172
09:00+11ese457350 0.0 1014484
12:00+15e4552100 0.0 10131246
15:00+16ese5548100 0.0 10111833
18:00+14se3456100 0.0 1011831
21:00+12e1264100 0.0 101036